GFSFLT1_con_3kmhel_009.txt.gz
Helicity
49 87 71 91 104 114 222 179 158 142 141 104 69 44 36 26 1 -33 -35 -40 -53 -23 -13 24 122 83 77 43 76 57 75 66 35
41 81 51 91 101 118 149 165 174 149 128 95 58 51 59 40 10 -41 -26 -35 -5 -21 20 55 126 90 66 76 69 69 72 47 84
31 29 48 60 114 129 125 147 144 114 106 93 63 63 68 48 13 -4 -38 1 13 29 63 47 179 132 96 122 118 157 100 52 79
31 43 52 31 128 129 149 140 155 118 93 77 77 99 99 74 54 49 40 33 61 72 67 140 160 187 155 176 119 136 262 43 43
44 60 72 49 51 106 119 121 169 152 102 78 84 124 140 135 107 105 112 111 132 116 158 195 169 188 190 249 209 272 254 100 63
1 30 35 63 60 98 139 136 140 153 123 84 83 78 102 108 110 145 164 195 190 209 193 255 186 240 266 375 222 208 156 230 140
32 49 62 35 72 95 192 196 154 192 151 82 79 88 71 102 127 144 185 222 255 251 327 357 333 371 382 452 337 316 136 148 207
24 21 77 38 38 107 228 193 159 200 141 102 78 117 84 114 147 119 151 199 277 299 341 339 403 460 528 543 454 408 283 196 270
27 33 56 42 64 50 244 134 113 190 151 120 75 145 108 141 179 156 187 232 281 301 263 247 320 466 545 549 403 314 313 227 224
50 26 14 87 71 63 178 100 94 112 129 103 151 108 128 163 233 252 237 229 227 290 250 220 336 468 484 464 405 353 224 182 184
61 52 12 93 78 87 164 105 94 106 103 119 148 157 180 208 239 238 215 208 226 220 143 168 216 281 396 366 200 196 213 198 139
35 21 39 118 86 99 189 129 181 191 133 127 182 201 172 158 151 148 122 113 93 92 112 159 214 225 349 233 140 174 199 206 144
114 83 52 114 98 145 182 206 196 179 177 176 200 184 155 125 103 102 125 87 79 102 123 161 191 156 189 137 111 159 172 139 133
63 68 139 196 192 277 225 236 197 202 209 222 200 201 185 160 135 105 69 73 97 130 155 209 175 144 122 91 96 110 138 154 126
70 116 169 148 186 204 208 265 279 316 267 308 293 227 172 161 112 72 97 95 106 166 214 190 157 137 97 73 75 127 146 158 74
147 167 198 234 215 303 291 272 282 354 356 294 256 209 170 157 137 130 178 179 228 258 202 169 122 109 73 92 74 146 153 109 65
146 236 334 292 242 420 447 356 316 236 189 174 189 178 157 134 151 190 233 255 224 192 175 134 110 118 132 106 145 121 127 129 105
407 448 352 251 280 328 308 263 217 155 124 110 121 93 119 158 171 209 251 282 211 186 221 145 123 111 89 105 128 114 111 105 40
360 378 390 354 279 223 176 132 116 101 86 72 89 106 132 151 192 202 191 189 215 262 207 171 195 204 142 128 140 204 241 211 179
341 223 174 152 109 68 66 66 73 62 76 89 87 115 154 137 100 105 85 109 115 114 171 204 206 156 147 124 137 156 191 188 177

GFSFLT1_con_3kmhel_015.txt.gz
Helicity
329 40 144 274 362 444 466 450 480 528 518 376 306 279 190 141 140 43 -13 -29 30 107 108 86 128 157 171 124 90 85 73 88 71
235 158 -49 88 334 451 480 511 493 504 514 434 331 300 225 141 126 72 16 -39 -26 37 68 83 122 188 204 161 100 111 128 134 117
160 98 -74 -43 267 405 494 562 524 471 519 507 386 284 237 163 124 82 29 -2 -13 42 46 99 168 222 227 208 146 168 177 172 115
162 38 3 108 212 340 477 522 502 487 486 454 375 293 238 168 99 75 46 0 7 62 90 166 205 262 292 261 231 212 236 214 211
100 85 22 109 292 337 427 473 476 473 465 439 396 313 238 181 99 63 56 46 36 73 126 193 271 314 356 313 285 283 328 281 254
65 43 168 216 324 341 376 435 438 465 473 425 376 305 248 174 100 77 76 84 94 113 144 214 334 409 423 437 389 361 380 357 301
163 41 119 132 417 345 320 440 414 473 491 432 377 300 240 193 136 118 118 117 121 166 191 250 333 414 462 449 452 425 418 407 337
96 82 55 108 289 329 289 322 378 457 508 490 347 311 252 186 152 113 99 108 124 136 191 257 342 417 454 489 488 461 468 426 343
251 102 64 41 277 289 254 309 369 434 501 509 372 288 269 170 127 124 112 125 151 180 186 232 330 381 420 431 424 404 463 468 408
184 123 59 97 149 179 266 279 372 431 491 571 414 264 285 206 144 145 152 169 181 203 221 226 272 281 352 371 365 378 336 378 376
129 55 86 155 147 190 209 262 347 378 505 557 479 300 267 270 203 158 186 214 214 191 231 233 249 276 349 323 380 411 326 250 304
75 161 51 125 93 207 235 238 288 395 470 567 504 388 277 313 270 212 237 266 237 250 287 272 301 335 320 361 389 357 301 294 264
58 119 117 129 36 148 335 355 313 405 440 520 509 425 290 326 308 279 327 339 329 419 391 370 310 330 286 307 280 231 178 195 174
89 120 93 143 174 142 137 324 377 361 351 357 478 430 398 357 327 380 399 476 513 471 333 322 274 219 233 242 191 187 143 144 147
121 130 133 112 251 235 246 409 448 411 335 422 489 485 397 423 439 456 557 569 364 317 349 266 176 211 226 195 163 157 124 100 117
97 98 122 244 323 412 435 413 395 463 470 539 588 556 496 522 579 584 557 455 365 319 214 219 212 227 214 185 165 147 116 106 131
271 261 264 325 420 551 616 563 514 502 540 576 718 653 615 609 565 465 370 305 263 194 211 209 220 208 224 172 149 148 128 143 138
380 375 498 554 489 461 476 504 556 556 604 722 766 681 575 510 471 440 440 387 296 234 260 193 158 142 179 148 142 111 109 113 120
438 475 440 645 644 650 581 647 709 722 655 525 441 417 385 352 314 284 273 291 348 404 280 233 183 114 154 114 53 107 113 111 100
390 544 285 506 402 380 355 370 378 329 317 318 298 261 202 197 211 220 231 230 249 279 303 284 302 264 188 138 133 149 148 136 131

GFSFLT1_con_3kmhel_021.txt.gz
Helicity
345 327 331 276 245 290 375 467 421 392 377 339 343 351 287 254 228 229 180 135 84 41 16 -14 -4 49 72 80 73 64 64 86 93
193 317 307 290 229 262 295 358 461 492 464 422 428 398 363 286 239 229 195 149 92 44 25 -15 -17 49 83 89 86 87 93 100 106
188 255 284 246 222 225 295 340 475 520 511 520 533 497 413 375 268 232 225 148 98 66 8 -27 -25 33 69 73 104 104 110 111 106
195 258 267 316 269 263 269 306 346 473 473 446 463 442 407 352 269 222 220 132 97 85 38 -11 -12 26 83 96 109 120 127 122 137
45 149 244 160 181 204 226 270 349 390 415 417 419 468 424 360 308 233 188 131 68 74 42 28 17 18 55 94 113 133 154 154 158
62 113 188 206 172 185 217 250 323 383 390 358 385 421 383 328 258 253 183 121 72 65 39 26 40 48 71 110 132 155 166 174 189
94 135 212 287 293 177 224 280 326 389 365 359 369 381 362 327 261 238 181 127 71 54 68 75 67 104 116 130 161 186 195 233 239
0 52 195 240 230 153 227 211 293 259 288 344 336 352 315 299 277 204 167 99 72 74 70 76 129 161 157 180 190 217 247 276 292
63 77 149 191 207 136 125 282 341 287 288 351 393 319 303 309 299 218 166 128 85 96 110 113 179 202 230 253 253 245 272 316 320
51 102 127 166 83 223 120 219 308 412 352 402 398 344 276 294 318 246 193 160 144 116 133 189 196 203 240 251 232 240 290 314 324
32 44 65 67 109 61 69 281 280 277 315 362 393 312 272 284 310 269 241 192 167 137 161 192 218 229 236 202 173 213 252 265 289
98 100 79 97 99 64 134 231 229 320 332 355 323 275 292 334 329 267 289 239 203 179 156 177 219 238 206 157 158 156 178 256 245
22 73 81 62 84 150 177 161 278 372 320 337 288 308 315 351 377 336 311 293 263 235 200 164 236 207 177 160 190 156 167 247 248
109 67 65 107 122 122 131 232 298 315 356 271 242 256 310 304 372 368 332 306 319 312 285 231 194 193 194 194 181 122 209 313 238
214 208 207 181 117 105 129 175 296 307 308 242 276 268 319 371 388 433 400 347 335 326 292 226 248 227 201 162 131 174 234 280 191
228 209 178 152 121 119 144 120 143 223 250 312 315 282 302 343 368 465 446 472 398 335 296 267 309 302 238 227 214 218 186 178 149
235 191 152 82 74 80 93 187 215 133 124 195 293 374 355 404 429 438 495 552 425 454 372 345 339 303 299 296 235 209 151 204 160
148 116 115 120 93 57 23 -41 -12 149 164 124 197 243 365 484 560 587 553 601 428 362 412 348 349 324 297 290 248 236 222 240 190
135 121 110 96 66 98 110 71 33 -23 -22 136 120 313 433 516 654 799 822 838 836 798 612 448 265 224 148 171 137 184 228 194 171
76 67 92 52 9 35 11 0 -8 22 68 60 108 235 488 670 786 948 699 566 487 737 628 318 146 115 116 118 140 218 190 176 166

GFSFLT1_con_3kmhel_024.txt.gz
Helicity
238 281 285 274 207 251 273 269 250 224 213 171 184 218 241 263 246 203 150 125 118 89 84 25 -26 -37 -12 26 39 20 25 43 49
135 244 314 302 272 241 300 317 351 381 283 238 235 229 258 274 283 245 181 150 150 108 82 26 -19 -33 -9 25 47 45 40 43 54
141 199 253 291 290 254 282 305 385 375 364 340 344 297 278 303 339 310 255 213 157 132 95 38 -35 -40 -25 18 42 58 65 46 55
117 188 303 291 278 295 306 230 263 382 397 382 362 357 355 323 285 292 288 239 170 151 133 65 -14 -26 -14 -3 44 69 88 70 78
45 22 194 288 299 285 237 227 209 309 357 384 432 441 421 406 387 343 349 263 176 160 139 93 24 11 14 7 39 91 108 103 104
95 52 52 167 213 302 332 283 251 288 305 313 343 393 395 365 350 364 325 292 192 175 147 102 56 40 21 27 44 105 113 132 149
37 70 78 104 186 237 245 279 305 309 273 304 319 307 333 341 350 378 338 325 233 170 160 134 68 44 64 63 55 94 134 157 175
73 60 99 98 150 206 224 245 218 252 290 352 362 340 278 259 309 299 276 254 235 174 144 120 106 98 86 93 85 103 160 178 196
41 27 81 91 128 258 270 235 235 275 304 345 400 396 303 271 295 313 265 256 247 188 138 129 110 85 96 106 93 101 175 203 209
35 31 11 67 106 251 265 276 252 227 278 328 411 343 302 294 334 337 291 275 245 216 175 180 136 103 112 100 105 151 203 227 233
92 68 -21 -31 67 113 159 198 199 129 222 307 233 294 362 346 333 330 308 300 248 200 204 192 181 157 152 139 144 191 213 246 224
81 95 72 105 84 133 155 178 158 218 261 227 300 240 269 316 346 364 372 328 278 241 231 219 189 198 204 174 167 213 238 257 226
82 91 67 47 68 85 145 142 263 266 249 327 345 388 383 384 397 378 363 329 303 303 277 265 275 216 194 165 174 219 234 250 260
125 93 65 56 46 66 73 58 173 219 291 308 338 402 388 376 340 329 349 368 375 332 327 304 276 230 203 176 169 178 215 258 244
172 178 186 179 173 180 171 127 95 182 235 211 250 290 349 330 342 334 323 326 307 359 399 374 313 237 210 213 214 193 241 265 245
243 261 226 225 173 195 171 124 137 148 165 130 89 133 211 240 251 263 339 345 375 377 405 344 295 310 216 220 263 359 272 184 212
357 334 272 175 167 180 195 153 102 66 68 55 61 91 137 219 242 283 259 261 242 306 370 364 357 329 390 411 461 381 250 238 230
365 306 234 196 160 116 112 119 99 96 90 66 50 40 92 155 214 271 314 455 451 348 270 307 262 359 532 479 401 403 443 244 203
350 336 320 303 236 124 66 7 -20 -26 -27 -2 10 39 66 127 234 274 453 575 520 602 561 610 626 650 877 677 256 202 284 298 83
257 243 235 235 216 138 120 94 90 116 66 2 12 28 61 155 291 418 525 553 475 587 876 865 761 643 689 491 63 64 216 95 106

GFSFLT1_con_3kmhel_030.txt.gz
Helicity
64 22 25 12 41 40 67 88 120 120 74 28 23 17 27 12 18 1 -6 14 2 21 11 16 8 10 -40 -45 -57 -67 -58 -51 -24
35 45 25 19 38 65 62 77 115 147 190 126 96 69 72 56 53 38 18 -0 41 17 24 12 18 8 -26 -42 -53 -72 -56 -54 -24
11 36 21 13 27 42 67 68 90 133 192 215 202 134 93 87 95 98 72 85 56 39 46 37 33 15 -14 -25 -57 -58 -45 -47 -27
8 -2 30 36 65 49 48 35 46 69 86 127 146 148 169 116 70 67 61 80 87 71 57 72 52 69 11 -7 -18 -25 -37 -47 -25
17 18 28 25 22 19 47 54 53 80 91 99 104 136 163 180 165 118 76 80 70 84 83 79 91 78 58 10 -7 -14 -27 -35 -22
83 93 64 44 42 47 60 52 41 31 66 53 63 79 85 82 93 95 98 87 61 74 96 95 62 63 86 50 21 16 1 -24 -14
96 78 77 45 35 12 38 48 86 92 50 39 11 39 62 89 118 137 140 145 115 99 113 107 96 97 102 94 44 28 20 -3 -5
100 119 122 129 94 70 90 77 78 139 114 53 27 38 38 68 105 125 133 149 124 109 119 128 135 118 105 104 74 23 38 35 24
175 217 205 151 86 68 58 48 47 72 141 95 57 55 79 66 83 100 130 163 140 122 138 163 168 161 146 135 100 60 65 75 62
1 18 84 143 123 102 95 54 56 67 129 109 96 33 82 87 114 105 127 168 173 145 172 179 194 192 175 181 167 153 143 154 89
84 96 95 114 84 49 72 80 49 56 76 123 123 93 75 92 74 83 105 143 185 171 190 186 184 191 186 178 156 193 234 196 121
30 64 98 108 83 102 97 89 87 51 82 98 96 125 109 94 82 59 77 136 176 186 175 172 162 110 114 119 95 172 281 289 162
20 27 44 105 112 86 78 77 81 56 76 88 100 122 101 85 111 130 120 139 133 150 143 141 142 170 162 127 83 98 165 275 172
63 31 30 4 64 79 46 70 93 89 70 47 68 72 87 101 133 162 173 183 176 207 192 153 170 169 199 196 186 148 182 231 222
-4 18 31 7 26 67 68 82 81 90 87 70 77 72 79 117 104 93 101 144 181 181 173 181 211 218 124 319 255 192 272 276 246
5 -18 17 10 21 73 107 107 101 98 81 77 93 83 96 91 87 79 114 161 158 181 169 183 231 268 253 318 265 285 296 313 222
11 27 15 38 44 72 117 159 149 144 124 102 81 65 74 89 73 70 71 93 109 125 129 167 164 255 260 359 222 251 368 356 343
38 60 107 142 120 140 195 251 263 254 253 189 131 118 114 92 75 73 76 67 88 100 78 120 141 172 175 261 368 268 378 574 553
93 149 217 232 264 254 273 286 316 353 322 282 248 173 126 112 93 78 78 87 88 227 238 225 155 131 208 172 164 265 459 518 453
314 330 335 366 364 328 303 281 282 278 252 227 208 188 165 136 105 109 108 79 75 98 199 185 214 199 146 212 380 513 524 397 534

GFSFLT1_con_3kmhel_033.txt.gz
Helicity
39 46 28 68 57 90 106 107 142 98 115 69 48 59 43 35 20 -10 -11 2 10 20 19 21 29 130 70 -1 -42 -44 -38 -35 -21
11 70 37 37 71 73 102 118 172 176 174 158 128 111 98 62 43 14 12 8 29 43 21 -1 79 119 65 15 -36 -43 -32 -42 -7
-27 17 53 49 50 67 99 104 174 209 171 212 186 170 161 135 106 68 34 45 45 57 37 27 78 123 88 31 -1 -21 -21 -31 -29
-15 -8 62 38 51 56 83 73 72 141 137 158 154 171 197 154 124 96 71 77 93 73 81 89 35 125 108 74 35 21 7 -28 -6
-15 2 44 35 47 23 39 56 72 110 104 94 137 155 187 199 178 133 108 90 92 93 100 114 129 118 146 102 57 44 41 18 5
1 24 39 29 31 52 27 67 69 87 129 98 86 99 122 150 167 181 172 147 119 117 114 114 105 115 147 153 116 90 75 57 29
42 72 85 39 19 35 56 57 114 97 83 70 53 69 57 72 97 142 172 202 190 129 126 122 110 110 127 154 140 131 108 90 68
53 85 95 100 91 93 79 91 113 169 75 91 80 108 80 71 53 54 85 137 176 162 141 128 125 129 151 143 135 118 140 94 72
44 100 89 59 60 91 82 100 95 93 115 49 93 101 102 86 66 64 62 97 153 161 163 172 166 190 205 212 161 121 145 148 102
87 98 71 32 55 53 68 80 94 74 75 67 40 135 125 89 103 103 96 92 133 164 203 211 213 201 218 215 218 228 238 216 166
64 83 105 67 67 39 60 45 45 63 69 93 71 98 158 127 140 159 154 113 110 133 142 184 215 206 202 226 246 224 263 316 237
48 74 112 96 65 47 58 71 60 89 48 85 116 101 158 153 144 162 177 165 162 168 193 192 214 228 243 246 248 296 268 295 247
51 21 32 40 51 67 70 75 81 102 93 94 133 148 145 182 165 183 185 163 180 188 157 163 156 165 209 233 233 302 396 383 259
114 76 112 159 124 179 160 130 95 103 86 88 133 108 115 171 178 198 164 139 129 141 154 140 151 153 171 179 221 280 403 465 378
57 44 23 63 105 72 42 100 91 92 109 77 129 124 127 134 139 155 157 133 132 152 155 143 114 148 138 172 189 251 354 433 451
77 72 53 9 61 43 31 72 110 99 77 107 108 123 126 119 128 126 122 154 159 140 159 135 140 162 199 200 229 248 321 361 372
57 58 73 79 39 25 15 47 81 87 84 96 110 120 103 105 107 119 117 120 139 122 139 156 149 191 207 214 197 229 251 266 287
92 66 75 85 94 91 81 120 190 215 148 107 115 118 112 103 83 92 98 95 96 111 95 79 90 112 88 108 129 186 179 224 240
88 51 56 58 87 89 89 93 129 154 172 257 138 109 122 111 104 93 92 101 94 98 95 118 72 63 99 110 163 140 161 333 380
47 81 30 54 72 97 134 155 126 143 189 219 247 314 314 270 189 176 147 85 72 69 73 107 148 190 137 114 95 57 86 247 390

GFSFLT1_con_3kmhel_036.txt.gz
Helicity
94 83 65 182 280 259 226 139 265 278 258 196 136 99 57 24 36 22 -29 -31 21 -8 32 83 124 122 149 126 41 -16 -31 10 -19
111 79 50 148 233 283 300 195 242 277 262 203 148 121 102 52 71 48 38 6 -8 34 -5 16 95 198 188 147 95 30 -23 -12 9
79 72 75 121 217 269 296 278 263 253 269 249 203 158 145 139 123 136 81 64 15 16 51 -6 64 236 192 166 108 74 30 -2 -26
29 57 116 100 190 213 278 274 249 248 224 216 163 146 146 137 124 114 111 83 68 43 40 47 -22 158 208 176 141 99 72 40 18
23 35 123 112 142 192 214 269 243 229 202 181 174 150 118 103 108 117 104 93 81 74 73 57 48 110 198 230 185 143 119 102 47
35 34 55 122 143 147 161 214 212 227 192 167 137 116 105 105 113 123 121 119 120 117 123 113 103 100 204 238 206 170 141 113 81
38 21 20 118 109 146 124 173 220 202 224 162 132 126 96 97 106 129 135 131 123 127 158 165 156 161 197 248 240 194 176 146 107
28 94 132 144 106 157 157 190 237 204 209 247 192 150 160 147 117 117 107 116 130 141 153 202 213 206 188 221 238 214 196 188 185
147 191 116 101 125 176 130 119 188 215 229 245 268 218 235 210 163 126 106 96 113 123 124 127 143 167 188 212 248 271 273 237 198
117 117 140 135 151 103 50 79 96 168 194 209 215 228 240 284 260 180 141 111 98 112 134 145 156 184 207 235 265 294 332 322 285
65 98 122 85 79 87 132 55 103 169 189 152 129 147 160 227 336 293 207 172 152 144 148 164 181 183 206 231 284 337 377 383 320
117 89 77 74 81 54 30 53 27 136 115 148 122 67 79 149 263 330 301 256 211 185 172 179 203 210 217 237 246 308 382 435 351
237 176 151 143 126 123 50 54 62 145 136 127 119 89 96 175 203 263 330 300 255 224 203 197 203 214 237 248 219 247 338 446 386
283 195 165 162 181 235 123 138 214 171 96 102 100 128 158 162 196 211 247 283 283 264 222 181 176 165 171 170 180 181 254 380 411
216 185 115 71 94 154 240 122 133 177 190 138 126 152 174 187 171 203 199 244 259 246 207 172 156 135 108 123 128 126 156 266 338
193 232 128 86 42 45 103 112 89 126 107 119 95 120 186 205 176 187 163 194 215 236 177 157 144 137 126 149 129 106 113 202 226
232 319 127 137 167 172 128 53 83 93 95 128 152 145 148 166 161 162 151 142 178 163 150 154 153 148 154 151 132 106 103 148 242
231 331 268 92 115 169 171 168 136 195 205 181 144 143 128 130 113 122 119 116 125 135 108 109 118 121 110 107 121 132 237 168 197
106 240 217 140 97 75 112 99 101 133 152 228 209 164 167 121 103 91 104 96 93 63 113 155 156 172 162 136 140 142 83 65 147
30 143 131 78 75 94 90 124 97 96 120 164 248 237 208 119 78 90 96 38 79 91 210 218 146 132 138 126 94 99 99 55 4